Regional Weather Roundup
Issued by NWS Cleveland, OH

Home | Current Version | Previous Version | Text Only | Print | Product List | Glossary Off
Versions: 1 2 3 4 5 6 7 8 9 10 11 12 13 14 15 16 17 18 19 20 21 22 23 24 25 26 27 28 29 30 31 32 33 34 35 36 37 38 39 40 41 42 43 44 45 46 47 48 49 50

000
ASUS41 KCLE 142002
RWRCLE
OHIO REGIONAL WEATHER ROUNDUP
NATIONAL WEATHER SERVICE CLEVELAND, OH
300 PM EST SUN FEB 14 2016

NOTE: "FAIR" INDICATES FEW OR NO CLOUDS BELOW 12,000 FEET WITH NO
SIGNIFICANT WEATHER AND/OR OBSTRUCTIONS TO VISIBILITY.

OHZ001>008-015>018-024>027-034-035-043-044-142100-
   NORTHWEST OHIO

CITY           SKY/WX    TMP DP  RH WIND       PRES   REMARKS
DEFIANCE       CLOUDY    20   4  50 SE12G17   30.28F WCI   8
FINDLAY        CLOUDY    20   6  55 SE12      30.27F WCI   8
TOLEDO EXPRESS CLOUDY    18   5  57 SE8G17    30.31F WCI   8
TOLEDO EXEC    CLOUDY    20   4  50 SE9       30.34F WCI   9
LIMA           CLOUDY    18   6  59 SE12      30.25F WCI   5
$$

OHZ009>014-019>023-028>033-038-089-142100-
   NORTHEAST OHIO

CITY           SKY/WX    TMP DP  RH WIND       PRES   REMARKS
CLE-HOPKINS    CLOUDY    17   1  49 S7        30.38F WCI   8
CLE-LAKEFRONT  CLOUDY    19   2  47 E9        30.37F WCI   8
CUY CO. ARPT   PTSUNNY   30   1  29 SE7       30.32F WCI  23
LORAIN-ELYRIA  CLOUDY    15  -1  49 S12       30.35F WCI   2
ASHTABULA      PTSUNNY   14   0  53 SE6       30.39F WCI   5
AKRON-CANTON   CLOUDY    16   0  49 SE10      30.32F WCI   4
WOOSTER        CLOUDY    15   2  56 SE8       30.33F WCI   4
MANSFIELD      CLOUDY    16   4  59 SE12      30.27F WCI   3
YOUNGSTOWN     CLOUDY    15   1  53 SE6       30.35F WCI   6
$$

OHZ042-051>053-060>062-070>072-077>081-142100-
  SOUTHWEST OHIO

CITY           SKY/WX    TMP DP  RH WIND       PRES   REMARKS
CINC-COVINGTON LGT SNOW  18  11  74 SE12      30.25R WCI   5
CINC-LUNKEN    LGT SNOW  20  13  74 VRB5      30.31R WCI  13
HAMILTON       LGT SNOW  20  13  74 E7        30.30R VSB 1   WCI  11
DAYTON         CLOUDY    17   5  59 SE14      30.27R WCI   3
WRIGHT-PAT AFB NOT AVBL
DAYTON GENERAL LGT SNOW  18   5  57 SE10      30.26R WCI   6
WILMINGTON     CLOUDY    18   4  54 SE12      30.24F WCI   5
$$

OHZ036-037-039>041-045>050-054>059-063>069-073>076-082>088-142100-
  CENTRAL AND SOUTHEAST OHIO

CITY           SKY/WX    TMP DP  RH WIND       PRES   REMARKS
COLUMBUS       CLOUDY    17   2  51 E10       30.29F WCI   5
OSU AIRPORT    CLOUDY    18   4  54 E13       30.27F WCI   5
BOLTON FIELD   CLOUDY    18   5  57 E13       30.27F WCI   4
RICKENBACK AFB NOT AVBL
NEWARK         CLOUDY    19   3  49 E9        30.29F WCI   8
MARION         CLOUDY    18   3  52 SE12      30.28F WCI   5
LANCASTER      CLOUDY    20   5  52 E14       30.28F WCI   7
ZANESVILLE     CLOUDY    20   3  48 SE7       30.32F WCI  11
NEW PHILLY     CLOUDY    19  32 100 SE5       30.35F WCI  12
$$



USA.gov is the U.S. government's official web portal to all federal, state and local government web resources and services.